Location: Maiden
(35.5760°N, 81.2120°W)
Time: 10:10:13
(UTC-04:00)

Vanguard 2 Rocket - Visible Passes

Search period start: 04 August 2020 00:00
Search period end: 14 August 2020 00:00
Orbit: 556 x 3325 km, 32.9° (Epoch: 03 August)

Date Brightness Start Highest point End Pass type
(mag) Time Alt. Az. Time Alt. Az. Time Alt. Az.
04 Aug 9.4 01:49:14 10° W 02:05:39 58° SSW 02:25:07 10° SE visible
04 Aug 10.0 04:07:32 10° W 04:25:15 27° SSW 04:37:03 10° S visible
04 Aug 8.9 22:34:38 10° W 22:46:09 81° S 23:01:45 18° E visible
05 Aug 9.2 00:48:42 10° W 01:03:42 66° SSW 01:07:19 59° SSE visible
05 Aug 10.1 03:05:07 10° W 03:32:19 22° S 03:38:01 10° SSE visible
05 Aug 10.5 05:38:23 11° SW 05:38:23 11° SW 05:40:33 10° SW visible
05 Aug 8.6 21:35:15 10° W 21:45:02 79° S 22:02:18 10° E visible
05 Aug 9.0 23:48:37 10° W 00:01:53 73° SSW 00:08:55 47° SE visible
06 Aug 9.7 02:03:44 10° W 02:38:20 - SE 02:14:33 41° WSW visible
06 Aug 10.5 04:44:19 14° SSW 04:44:19 14° SSW 04:47:16 10° S visible
06 Aug 8.4 20:36:10 10° WSW 20:44:24 73° SSE 20:59:26 10° E visible
06 Aug 8.8 22:48:55 10° W 23:00:22 77° S 23:10:59 31° ESE visible
07 Aug 9.3 01:03:03 10° W 01:16:37 55° SW 01:16:37 55° SW visible
07 Aug 10.5 03:20:35 10° W 03:49:42 10° S 03:22:17 13° W visible
07 Aug 8.6 21:49:30 10° W 21:59:15 79° S 22:13:17 17° E visible
08 Aug 9.1 00:02:55 10° W 00:15:55 63° SSW 00:18:58 57° SSE visible
08 Aug 10.1 02:18:36 10° W 02:54:43 - SSE 02:24:38 25° WSW visible
08 Aug 8.3 20:50:22 10° W 20:58:34 78° S 21:13:38 10° E visible
08 Aug 8.8 23:03:11 10° W 23:14:30 70° SSW 23:21:29 43° SE visible
09 Aug 9.6 01:17:38 10° W 01:27:10 39° WSW 01:27:10 39° WSW visible
09 Aug10.904:05:18S04:05:18S03:32:52Wvisible
09 Aug 8.6 22:03:47 10° W 22:13:27 75° S 22:24:09 26° ESE visible
10 Aug 9.2 00:17:20 10° W 00:29:51 52° SSW 00:29:51 52° SSW visible
10 Aug 10.5 02:34:13 10° W 02:35:34 13° W 02:35:34 13° W visible
10 Aug 8.3 21:04:37 10° W 21:12:48 78° S 21:26:56 12° E visible
10 Aug 8.9 23:17:32 10° W 23:28:37 60° SSW 23:32:39 50° SSE visible
11 Aug 10.0 01:32:37 10° W 01:38:21 25° WSW 01:38:21 25° WSW visible
11 Aug 8.6 22:18:06 10° W 22:27:39 66° SSW 22:35:32 34° SE visible
12 Aug 9.5 00:32:00 10° W 00:41:15 38° SW 00:41:15 38° SW visible
12 Aug 8.3 21:18:54 10° W 21:27:02 72° S 21:38:31 18° ESE visible
12 Aug 9.1 23:32:00 10° W 23:42:43 48° SSW 23:44:15 47° S visible
13 Aug 10.4 01:48:28 10° W 01:49:59 13° WSW 01:49:59 13° WSW visible
13 Aug 8.8 22:32:28 10° W 22:41:48 55° SSW 22:47:19 39° SSE visible
